TimeCDT,TemperatureF,Dew PointF,Humidity,Sea Level PressureIn,VisibilityMPH,Wind Direction,Wind SpeedMPH,Gust SpeedMPH,PrecipitationIn,Events,Conditions,WindDirDegrees,DateUTC
12:52 AM,34.0,23.0,64,29.90,10.0,WNW,5.8,-,N/A,,Clear,290,2012-10-31 05:52:00
1:52 AM,36.0,24.1,62,29.91,10.0,WNW,9.2,-,N/A,,Clear,300,2012-10-31 06:52:00
2:52 AM,35.1,24.1,64,29.91,10.0,WNW,8.1,-,N/A,,Clear,300,2012-10-31 07:52:00
3:52 AM,34.0,24.1,67,29.91,10.0,WNW,8.1,-,N/A,,Clear,300,2012-10-31 08:52:00
4:52 AM,33.1,24.1,70,29.92,10.0,NW,5.8,-,N/A,,Clear,310,2012-10-31 09:52:00
5:52 AM,33.1,24.1,70,29.92,10.0,NW,8.1,-,N/A,,Clear,310,2012-10-31 10:52:00
6:52 AM,32.0,24.1,73,29.93,10.0,NW,8.1,-,N/A,,Clear,310,2012-10-31 11:52:00
7:52 AM,32.0,24.1,73,29.95,10.0,NW,6.9,-,N/A,,Clear,310,2012-10-31 12:52:00
8:52 AM,35.1,25.0,67,29.96,10.0,WNW,8.1,-,N/A,,Clear,300,2012-10-31 13:52:00
9:52 AM,39.0,26.1,60,29.96,10.0,NNW,10.4,-,N/A,,Clear,340,2012-10-31 14:52:00
10:52 AM,41.0,26.1,55,29.97,10.0,NNW,9.2,-,N/A,,Clear,330,2012-10-31 15:52:00
11:52 AM,43.0,27.0,53,29.97,10.0,WNW,11.5,-,N/A,,Clear,300,2012-10-31 16:52:00
12:52 PM,46.9,27.0,46,29.95,10.0,NW,9.2,-,N/A,,Clear,320,2012-10-31 17:52:00
1:52 PM,50.0,24.1,36,29.94,10.0,WNW,13.8,21.9,N/A,,Clear,300,2012-10-31 18:52:00
2:52 PM,51.1,21.9,32,29.93,10.0,WNW,13.8,-,N/A,,Clear,300,2012-10-31 19:52:00
3:52 PM,52.0,17.1,25,29.93,10.0,NW,18.4,-,N/A,,Clear,310,2012-10-31 20:52:00
4:52 PM,51.1,18.0,27,29.93,10.0,NW,13.8,21.9,N/A,,Clear,320,2012-10-31 21:52:00
5:52 PM,48.0,19.0,32,29.94,10.0,WNW,10.4,-,N/A,,Clear,300,2012-10-31 22:52:00
6:52 PM,45.0,19.9,37,29.95,10.0,WNW,8.1,-,N/A,,Clear,290,2012-10-31 23:52:00
7:52 PM,43.0,21.0,42,29.96,10.0,WNW,8.1,-,N/A,,Clear,290,2012-11-01 00:52:00
8:52 PM,39.9,21.0,47,29.96,10.0,WNW,8.1,-,N/A,,Clear,290,2012-11-01 01:52:00
9:52 PM,36.0,21.9,57,29.97,10.0,WSW,3.5,-,N/A,,Clear,250,2012-11-01 02:52:00
10:52 PM,32.0,23.0,69,29.97,10.0,West,6.9,-,N/A,,Clear,260,2012-11-01 03:52:00
11:52 PM,33.1,21.9,64,29.97,10.0,West,5.8,-,N/A,,Clear,260,2012-11-01 04:52:00